Location: Lake Almanor
(40.2485°N, 121.1442°W)
Time: 20:03:26
(UTC-08:00)

STARLINK-1090 - Pass Details

Date: 31 January 2020
Orbit: 348 x 351 km, 53.0° (Epoch: 21 February)

Event Time Altitude Azimuth Distance (km) Brightness Sun altitude
Rises 18:04:12 0° 316° (NW) 2,178 7.1 -8.5°
Reaches altitude 10° 18:06:21 10° 327° (NNW) 1,331 5.8 -8.9°
Maximum altitude 18:09:03 31° 32° (NNE) 659 3.7 -9.4°
Enters shadow 18:11:08 14° 91° (E) 1,108 4.6 -9.8°
